Jackson, NJ

2:26 AM EST on December 03, 2016 (GMT -0500)
Lakehurst Naes

Weather History for KNEL - October, 2012

Change the Weather History Date:

Sunday, October 7, 2012

  Actual Average Record
Temperature  
Mean Temperature 46 °F -  
Max Temperature 44 °F 66 °F 79 °F (1997)
Min Temperature 41 °F 47 °F 34 °F (1999)
Degree Days  
Heating Degree Days 18    
Moisture  
Dew Point 45 °F    
Average Humidity 89    
Maximum Humidity 97    
Minimum Humidity 74    
Precipitation  
Precipitation 0.00 in - - ()
Sea Level Pressure  
Sea Level Pressure 30.07 in    
Wind  
Wind Speed 1 mph (WNW)    
Max Wind Speed 8 mph    
Max Gust Speed -    
Visibility 9 miles    
Events Rain    
Averages and records for this station are not official NWS values.
T = Trace of Precipitation, MM = Missing Value Source: NWS Daily Summary

Daily Weather History Graph

Daily Weather History Graph

Search for Another Location

Airport or City:

Trip Planner

Search our weather history database for the weather conditions in past years. The results will help you decide how hot, cold, wet, or windy it might be!

Date:

Astronomy

Oct. 07, 2012 Rise Set
Actual Time 7:00 AM EDT 6:29 PM EDT
Civil Twilight 6:33 AM EDT 6:56 PM EDT
Nautical Twilight 6:01 AM EDT 7:27 PM EDT
Astronomical Twilight 5:30 AM EDT 7:59 PM EDT
Moon 11:38 PM EDT (10/7) 1:35 PM EDT (10/7)
Length of Visible Light 12h 23m
Length of Day
11h 29m
Waning Gibbous, 56% of the Moon is Illuminated
Oct 7
Waning Gibbous
Oct 8
Last Quarter
Oct 15
New
Oct 21
First Quarter
Oct 29
Full

Hourly Weather History & Observations

Time (EDT) Temp. Dew Point Humidity Pressure Visibility Wind Dir Wind Speed Gust Speed Precip Events Conditions
12:00 AM 50.0 °F 46.9 °F 89% 30.00 in 10.0 mi Calm Calm - N/A   Clear
1:00 AM 48.0 °F 46.0 °F 93% 30.02 in 10.0 mi WNW 3.5 mph - N/A   Clear
2:00 AM 46.9 °F 45.0 °F 93% 30.02 in 10.0 mi NW 3.5 mph - N/A   Clear
3:00 AM 44.1 °F 42.1 °F 93% 30.02 in 10.0 mi Calm Calm - N/A   Clear
5:00 AM 42.1 °F 41.0 °F 96% 30.05 in 10.0 mi Calm Calm - N/A   Clear
6:00 AM 42.1 °F 39.9 °F 92% 30.08 in 10.0 mi Calm Calm - N/A   Partly Cloudy
7:00 AM 41.0 °F 39.9 °F 96% 30.07 in 10.0 mi Calm Calm - N/A   Clear
8:00 AM 44.1 °F 42.1 °F 93% 30.09 in 10.0 mi Calm Calm - N/A   Clear
9:00 AM 48.9 °F 45.0 °F 86% 30.09 in 10.0 mi Calm Calm - N/A   Overcast
10:00 AM 50.0 °F 45.0 °F 83% 30.10 in 10.0 mi Calm Calm - N/A   Overcast
11:00 AM 51.1 °F 43.0 °F 74% 30.11 in 10.0 mi NW 4.6 mph - N/A   Overcast
12:00 PM 51.1 °F 44.1 °F 77% 30.12 in 10.0 mi Calm Calm - 0.00 in Rain Light Rain
1:00 PM 50.0 °F 46.0 °F 86% 30.11 in 10.0 mi Calm Calm - 0.00 in Rain Light Rain
2:00 PM 50.0 °F 45.0 °F 83% 30.08 in 10.0 mi Calm Calm - 0.00 in   Overcast
3:00 PM 50.0 °F 46.9 °F 89% 30.05 in 10.0 mi Calm Calm - N/A   Overcast
4:00 PM 51.1 °F 46.9 °F 86% 30.03 in 10.0 mi Calm Calm - N/A   Overcast
5:00 PM 52.0 °F 46.9 °F 83% 30.02 in 10.0 mi Calm Calm - N/A   Overcast
6:00 PM 51.1 °F 45.0 °F 80% 30.03 in 10.0 mi SSE 3.5 mph - N/A   Overcast
7:00 PM 50.0 °F 46.9 °F 89% 30.05 in 10.0 mi Variable 3.5 mph - 0.00 in   Overcast
7:55 PM 48.2 °F 46.4 °F 93% 30.10 in 7.0 mi WNW 8.1 mph - 0.00 in Rain Light Rain
8:00 PM 48.9 °F 46.9 °F 93% 30.09 in 5.0 mi NW 5.8 mph - 0.00 in Rain Light Rain
9:00 PM 48.9 °F 48.0 °F 97% 30.12 in 7.0 mi WNW 4.6 mph - 0.00 in   Overcast
10:00 PM 48.9 °F 48.0 °F 97% 30.12 in 6.0 mi Calm Calm - 0.00 in   Overcast
11:00 PM 48.9 °F 48.0 °F 97% 30.13 in 6.0 mi WNW 3.5 mph - 0.00 in   Overcast